User: anonymous   Login
Location: Unspecified
(43.3830°N, 0.0000°E)
Time: 11:51:27
(UTC+00:00)
Language:

Transit 2A Rocket - Orbit

View from above orbital plane
View from above orbital plane
View from above satellite
View from above satellite

Ground track
Ground track

The orbit data is extracted from the following two-line orbital elements,

1    47U 60007C   19168.92308949 -.00000049 +00000-0 +14325-4 0  9996
2    47 066.6668 052.3269 0232030 212.3335 146.3373 14.42038211081975
Epoch (UTC): 17 June 2019 22:09:14
Eccentricity: 0.0232030
inclination: 66.6668°
perigee height: 586 km
apogee height: 917 km
right ascension of ascending node: 52.3269°
argument of perigee: 212.3335°
revolutions per day: 14.42038211
mean anomaly at epoch: 146.3373°
orbit number at epoch: 8197

The dashed part of the orbit path shows where the satellite is in the earth's shadow,  

DLR